• In Belarus
  • List of Countries
  • For 7 days
  • Water Temperature
  • Satellite Maps
  • Weather Map
  • Weather Widgets
  • user-avatar
    Login

    Hourly Weather Sofia

    Today, 21 January, Sunday

    Time Temperature Precipitation Wind Pressure Humidity
    00:00 -1°C° 0 mm 1 mps 706 mmHg 90%
    01:00 -1°C° 0 mm 1 mps 706 mmHg 88%
    02:00 0°C° 0 mm 1 mps 706 mmHg 83%
    03:00 0°C° 0 mm 1 mps 705 mmHg 80%
    04:00 0°C° 0 mm 1 mps 705 mmHg 78%
    05:00 0°C° 0 mm 1 mps 705 mmHg 75%
    06:00 +1°C° 0 mm 1 mps 705 mmHg 73%
    07:00 +1°C° 0 mm 1 mps 705 mmHg 71%
    08:00 +1°C° 0 mm 1 mps 705 mmHg 69%
    09:00 +2°C° 0 mm 1 mps 704 mmHg 66%
    10:00 +4°C° 0 mm 1 mps 704 mmHg 63%
    11:00 +4°C° 0 mm 2 mps 704 mmHg 60%
    12:00 +4°C° 0 mm 2 mps 704 mmHg 61%
    13:00 +5°C° 0 mm 2 mps 703 mmHg 63%
    14:00 +6°C° 0 mm 2 mps 703 mmHg 64%
    15:00 +5°C° 0.2 mm 2 mps 702 mmHg 69%
    16:00 +4°C° 0.2 mm 2 mps 701 mmHg 75%
    17:00 +4°C° 0.2 mm 1 mps 701 mmHg 81%
    18:00 +4°C° 0.5 mm 1 mps 701 mmHg 84%
    19:00 +3°C° 0.5 mm 1 mps 700 mmHg 87%
    20:00 +3°C° 0.5 mm 1 mps 700 mmHg 91%
    21:00 +2°C° 1.7 mm 2 mps 700 mmHg 92%
    22:00 +1°C° 1.7 mm 2 mps 700 mmHg 93%
    23:00 +1°C° 1.7 mm 2 mps 700 mmHg 95%

    Tomorrow, 22 January, Monday

    Time Temperature Precipitation Wind Pressure Humidity
    00:00 0°C° 1.3 mm 3 mps 701 mmHg 95%
    01:00 -1°C° 1.3 mm 3 mps 701 mmHg 95%
    02:00 -1°C° 1.3 mm 3 mps 701 mmHg 94%
    03:00 -1°C° 0.4 mm 3 mps 702 mmHg 94%
    04:00 -2°C° 0.4 mm 3 mps 702 mmHg 93%
    05:00 -2°C° 0.4 mm 3 mps 702 mmHg 92%
    06:00 -2°C° 0.1 mm 3 mps 702 mmHg 91%
    07:00 -4°C° 0.1 mm 3 mps 703 mmHg 90%
    08:00 -4°C° 0.1 mm 3 mps 703 mmHg 90%
    09:00 -4°C° 0.1 mm 4 mps 703 mmHg 87%
    10:00 -3°C° 0.1 mm 4 mps 704 mmHg 85%
    11:00 -2°C° 0.1 mm 4 mps 704 mmHg 82%
    12:00 -2°C° 0.1 mm 4 mps 705 mmHg 83%
    13:00 -2°C° 0.1 mm 4 mps 705 mmHg 83%
    14:00 -2°C° 0.1 mm 4 mps 705 mmHg 83%
    15:00 -2°C° 0.1 mm 4 mps 705 mmHg 84%
    16:00 -1°C° 0.1 mm 3 mps 706 mmHg 86%
    17:00 -2°C° 0.1 mm 2 mps 706 mmHg 87%
    18:00 -2°C° 0 mm 2 mps 707 mmHg 88%
    19:00 -3°C° 0 mm 2 mps 708 mmHg 90%
    20:00 -4°C° 0 mm 2 mps 708 mmHg 91%
    21:00 -4°C° 0 mm 2 mps 709 mmHg 91%
    22:00 -3°C° 0 mm 1 mps 709 mmHg 91%
    23:00 -3°C° 0 mm 1 mps 709 mmHg 91%

    Day after tomorrow, 23 January, Tuesday

    Time Temperature Precipitation Wind Pressure Humidity
    00:00 -4°C° 0 mm 1 mps 710 mmHg 91%
    01:00 -4°C° 0 mm 1 mps 710 mmHg 91%
    02:00 -6°C° 0 mm 1 mps 710 mmHg 91%
    03:00 -6°C° 0 mm 1 mps 710 mmHg 90%
    04:00 -6°C° 0 mm 1 mps 711 mmHg 90%
    05:00 -6°C° 0 mm 1 mps 711 mmHg 89%
    06:00 -6°C° 0 mm 1 mps 711 mmHg 89%
    07:00 -6°C° 0 mm 1 mps 712 mmHg 89%
    08:00 -6°C° 0 mm 1 mps 712 mmHg 88%
    09:00 -3°C° 0 mm 1 mps 713 mmHg 85%
    10:00 -1°C° 0 mm 1 mps 714 mmHg 81%
    11:00 -1°C° 0 mm 0 mps 714 mmHg 78%
    12:00 +1°C° 0 mm 1 mps 714 mmHg 77%
    13:00 +1°C° 0 mm 1 mps 714 mmHg 77%
    14:00 +2°C° 0 mm 1 mps 714 mmHg 77%
    15:00 +1°C° 0 mm 1 mps 714 mmHg 80%
    16:00 +1°C° 0 mm 1 mps 715 mmHg 84%
    17:00 0°C° 0 mm 1 mps 715 mmHg 87%
    18:00 -1°C° 0 mm 1 mps 715 mmHg 89%
    19:00 -2°C° 0 mm 1 mps 716 mmHg 91%
    20:00 -3°C° 0 mm 1 mps 717 mmHg 92%
    21:00 -3°C° 0 mm 1 mps 717 mmHg 92%
    22:00 -3°C° 0 mm 1 mps 718 mmHg 92%
    23:00 -4°C° 0 mm 1 mps 718 mmHg 92%

    24 January, Wednesday

    Time Temperature Precipitation Wind Pressure Humidity
    00:00 -4°C° 0 mm 1 mps 718 mmHg 91%
    01:00 -4°C° 0 mm 1 mps 719 mmHg 91%
    02:00 -4°C° 0 mm 1 mps 719 mmHg 90%
    03:00 -4°C° 0 mm 1 mps 719 mmHg 90%
    04:00 -6°C° 0 mm 1 mps 719 mmHg 89%
    05:00 -6°C° 0 mm 1 mps 719 mmHg 89%
    06:00 -6°C° 0 mm 1 mps 720 mmHg 88%
    07:00 -6°C° 0 mm 1 mps 720 mmHg 88%
    08:00 -6°C° 0 mm 1 mps 721 mmHg 87%
    09:00 -4°C° 0 mm 1 mps 721 mmHg 82%
    10:00 -2°C° 0 mm 1 mps 722 mmHg 78%
    11:00 0°C° 0 mm 1 mps 722 mmHg 73%
    12:00 0°C° 0 mm 1 mps 722 mmHg 71%
    13:00 +1°C° 0 mm 1 mps 722 mmHg 69%
    14:00 +2°C° 0 mm 1 mps 721 mmHg 66%
    15:00 +1°C° 0 mm 1 mps 721 mmHg 70%
    16:00 0°C° 0 mm 1 mps 721 mmHg 74%
    17:00 -1°C° 0 mm 1 mps 721 mmHg 78%
    18:00 -2°C° 0 mm 1 mps 721 mmHg 78%
    19:00 -3°C° 0 mm 1 mps 721 mmHg 77%
    20:00 -4°C° 0 mm 1 mps 721 mmHg 76%
    21:00 -4°C° 0 mm 1 mps 721 mmHg 74%
    22:00 -4°C° 0 mm 1 mps 721 mmHg 71%
    23:00 -4°C° 0 mm 1 mps 722 mmHg 68%

    25 January, Thursday

    Time Temperature Precipitation Wind Pressure Humidity
    00:00 -4°C° 0 mm 1 mps 721 mmHg 66%
    01:00 -4°C° 0 mm 1 mps 721 mmHg 65%
    02:00 -4°C° 0 mm 1 mps 721 mmHg 63%
    03:00 -4°C° 0 mm 1 mps 721 mmHg 63%
    04:00 -4°C° 0 mm 1 mps 720 mmHg 62%
    05:00 -4°C° 0 mm 1 mps 720 mmHg 61%
    06:00 -4°C° 0 mm 1 mps 720 mmHg 60%
    07:00 -4°C° 0 mm 1 mps 720 mmHg 59%
    08:00 -4°C° 0 mm 1 mps 720 mmHg 58%
    09:00 -2°C° 0 mm 1 mps 720 mmHg 58%
    10:00 0°C° 0 mm 1 mps 720 mmHg 57%
    11:00 +2°C° 0 mm 1 mps 720 mmHg 56%
    12:00 +3°C° 0 mm 1 mps 719 mmHg 59%
    13:00 +4°C° 0 mm 1 mps 719 mmHg 61%
    14:00 +5°C° 0 mm 1 mps 718 mmHg 63%
    15:00 +4°C° 0 mm 1 mps 718 mmHg 64%
    16:00 +3°C° 0 mm 1 mps 717 mmHg 66%
    17:00 +2°C° 0 mm 1 mps 717 mmHg 67%
    18:00 +1°C° 0 mm 1 mps 717 mmHg 66%
    19:00 0°C° 0 mm 1 mps 717 mmHg 66%
    20:00 0°C° 0 mm 1 mps 717 mmHg 65%
    21:00 0°C° 0 mm 1 mps 717 mmHg 64%
    22:00 0°C° 0 mm 1 mps 717 mmHg 63%
    23:00 -1°C° 0 mm 1 mps 717 mmHg 62%

    26 January, Friday

    Time Temperature Precipitation Wind Pressure Humidity
    00:00 -1°C° 0 mm 1 mps 716 mmHg 62%
    01:00 -1°C° 0 mm 1 mps 716 mmHg 61%
    02:00 -1°C° 0 mm 1 mps 716 mmHg 61%
    03:00 -1°C° 0 mm 1 mps 715 mmHg 60%
    04:00 -1°C° 0 mm 1 mps 715 mmHg 60%
    05:00 -1°C° 0 mm 1 mps 715 mmHg 60%
    06:00 -1°C° 0 mm 1 mps 715 mmHg 59%
    07:00 -1°C° 0 mm 1 mps 715 mmHg 59%
    08:00 -1°C° 0 mm 1 mps 715 mmHg 59%
    09:00 +1°C° 0 mm 1 mps 715 mmHg 60%
    10:00 +3°C° 0 mm 1 mps 715 mmHg 62%
    11:00 +5°C° 0 mm 1 mps 715 mmHg 63%
    12:00 +5°C° 0 mm 1 mps 715 mmHg 64%
    13:00 +6°C° 0 mm 1 mps 715 mmHg 66%
    14:00 +6°C° 0 mm 1 mps 714 mmHg 67%
    15:00 +5°C° 0 mm 1 mps 714 mmHg 70%
    16:00 +4°C° 0 mm 1 mps 714 mmHg 73%
    17:00 +3°C° 0 mm 1 mps 714 mmHg 75%
    18:00 +2°C° 0 mm 1 mps 714 mmHg 76%
    19:00 +1°C° 0 mm 1 mps 715 mmHg 76%
    20:00 0°C° 0 mm 1 mps 715 mmHg 76%
    21:00 0°C° 0 mm 1 mps 715 mmHg 76%
    22:00 0°C° 0 mm 1 mps 715 mmHg 75%
    23:00 0°C° 0 mm 1 mps 716 mmHg 75%
    Show more